Regional Weather Roundup
Issued by NWS

Home | Current Version | Previous Version | Text Only | Print | Product List | Glossary Off
Versions: 1 2 3 4 5 6 7 8 9 10 11 12 13 14 15 16 17 18 19 20 21 22 23 24 25 26 27 28 29 30 31 32 33 34 35 36 37 38 39 40 41 42 43 44 45 46 47 48 49 50

000
ASUS43 KMPX 300001
RWRMN
WEATHER ROUNDUP FOR MINNESOTA
NATIONAL WEATHER SERVICE TWIN CITIES/CHANHASSEN MN
700 PM CDT TUE JUL 29 2014


NOTE: "FAIR" INDICATES FEW OR NO CLOUDS BELOW 12,000 FEET WITH NO
SIGNIFICANT WEATHER AND/OR OBSTRUCTIONS TO VISIBILITY. N/A MEANS
CURRENT SKY AND/OR WEATHER CONDITIONS ARE NOT AVAILABLE.

MNZ060>063-068>070-300100-
   Twin Cities Metro

CITY           SKY/WX    TMP DP  RH WIND       PRES   REMARKS
TWIN CITIES    MOSUNNY   78  54  43 NW16G22   30.03F
6HR MIN TEMP:  76; 6HR MAX TEMP:  81;

ST PAUL        PTSUNNY   73  57  57 N8        30.03F
CRYSTAL        CLOUDY    78  53  41 NW15      30.03S
BLAINE         MOSUNNY   75  57  53 NW9       30.04F
LAKEVILLE      SUNNY     73  57  56 W9        30.04F
EDEN PRAIRIE   MOSUNNY   78  55  44 NW14      30.03F
6HR MIN TEMP:  76; 6HR MAX TEMP:  81;

SOUTH ST PAUL  CLOUDY    71  60  66 W5        30.03F
LAKE ELMO      FAIR      75  59  57 NW7       30.04F
$$
MNZ001>005-007-008-013>017-022>024-027-028-300100-
   Northwest Minnesota

CITY           SKY/WX    TMP DP  RH WIND       PRES   REMARKS
BEMIDJI        MOSUNNY   73  54  51 NW10      30.08F
HALLOCK        SUNNY     77  55  47 NW7       30.09S
ROSEAU         SUNNY     73  57  56 NW8       30.07F
WARROAD        SUNNY     75  55  50 NW9       30.07S
THIEF RVR FALL SUNNY     73  54  49 NW10      30.09F
CROOKSTON      SUNNY     73  57  56 NW6       30.10F
FOSSTON        SUNNY     73  55  53 NW8       30.10F
DETROIT LAKES  SUNNY     72  54  53 NW7       30.12S
MOORHEAD       SUNNY     75  54  46 NE7       30.10S
PARK RAPIDS    SUNNY     73  53  49 NW12      30.08F
$$
MNZ006-009>011-018-025>026-300100-
   North Central Minnesota

CITY           SKY/WX    TMP DP  RH WIND       PRES   REMARKS
BAUDETTE       MOSUNNY   75  55  49 NW10      30.06S
FLAG ISLAND    SUNNY     75  57  53 NW14      30.04F
INTL FALLS     PTSUNNY   64  59  83 W7        30.03F
6HR MIN TEMP:  63; 6HR MAX TEMP:  78; 6HR PCP:  0.04;

WASKISH        MOSUNNY   73  57  56 NW5       30.06S
BIG FORK       MOSUNNY   70  57  64 N1        30.05F
LONGVILLE      SUNNY     72  55  56 NW5       30.07S
GRAND RAPIDS   PTSUNNY   73  54  49 NW13      30.05S
CRANE LAKE     PTSUNNY   64  63  94 N3        30.05R THUNDER
ORR            MOSUNNY   70  54  56 W6        30.01F
COOK           PTSUNNY   70  55  60 CALM      30.04S
$$
MNZ012-019>021-037-300100-
   Northeast Minnesota

CITY           SKY/WX    TMP DP  RH WIND       PRES   REMARKS
DULUTH         LGT RAIN  65  58  78 NW14      30.04R
6HR MIN TEMP:  62; 6HR MAX TEMP:  78; 6HR PCP:  0.13;

ELY            HVY RAIN  61  55  82 NE8       30.06R
HIBBING        PTSUNNY   69  55  60 NW13      30.04R
EVELETH        MOSUNNY   72  54  53 NW10G18   30.03S
DULUTH HARBOR  PTSUNNY   70  61  73 W7        30.01F
TWO HARBORS    MOSUNNY   66  57  72 W6        29.98F
SILVER BAY     TSTM      57  57 100 NE3       30.03R
GRAND MARAIS     N/A     55  54  96 CALM      29.99F
G MARAIS ARPRT CLOUDY    57  54  88 W3        30.03F
$$
MNZ029>031-032-039>041-046>048-054>057-064-300100-
   West Central Minnesota

CITY           SKY/WX    TMP DP  RH WIND       PRES   REMARKS
FERGUS FALLS   SUNNY     75  50  41 N7        30.09S
WHEATON        SUNNY     73  54  49 W10       30.11F
MORRIS         SUNNY     73  55  53 N6        30.09F
ALEXANDRIA     SUNNY     75  53  46 NW12      30.11F
ELBOW LAKE     FAIR      73  55  53 NW8       30.10S
WADENA         SUNNY     72  54  53 NW7       30.09F
GLENWOOD       SUNNY     73  54  49 NW7       30.11S
APPLETON       SUNNY     77  54  44 NW7       30.10S
BENSON         SUNNY     73  54  49 N8        30.10S
ORTONVILLE     SUNNY     75  52  43 NW6       30.11S
MADISON        SUNNY     75  54  46 N9        30.10F
WILLMAR        FAIR      75  52  43 NW12      30.10F
$$
MNZ033>034-036-042>043-049>051-058-059-300100-
   Central Minnesota

CITY           SKY/WX    TMP DP  RH WIND       PRES   REMARKS
ST CLOUD       SUNNY     77  52  41 NW12      30.06S
6HR MIN TEMP:  76; 6HR MAX TEMP:  82;

SAUK CENTRE    FAIR      74  52  45 NW9       30.09S
PAYNESVILLE    MOSUNNY   73  51  46 W10       30.09S
AITKIN         SUNNY     75  55  50 NW8       30.04S
PINE RIVER     SUNNY     73  57  56 NW5       30.10S
BRAINERD       MOSUNNY   73  52  47 NW10      30.06F
STAPLES        SUNNY     73  52  46 NW13      30.08F
LONG PRAIRIE   FAIR      72  54  53 W9        30.09F
LITTLE FALLS   SUNNY     73  50  43 NW6       30.07S
LITCHFIELD     SUNNY     75  55  50 NW6       30.08F
BUFFALO        SUNNY     76  52  43 NW12      30.06F
MAPLE LAKE     MOSUNNY   75  56  51 NW9       30.07S
$$
MNZ037-044-045-052-053-300100-
   East Central Minnesota

CITY           SKY/WX    TMP DP  RH WIND       PRES   REMARKS
PRINCETON      MOSUNNY   75  55  50 NW12      30.05S
MORA           SUNNY     73  54  49 NW8       30.06S
CAMBRIDGE      SUNNY     79  59  50 NW8       30.03S
RUSH CITY      SUNNY     74  55  50 NW8       30.04S
MOOSE LAKE     CLOUDY    72  54  53 NW6       30.02S
HINCKLEY       FAIR      73  55  53 NW10      30.03F
CLOQUET        MOSUNNY   66  59  77 W3        30.03F
MCGREGOR       MOSUNNY   73  55  53 NW6       30.05S
$$
MNZ071>073-080-081-089-090-097-098-300100-
   Southwest Minnesota

CITY           SKY/WX    TMP DP  RH WIND       PRES   REMARKS
MONTEVIDEO     SUNNY     75  55  50 N9        30.11S
GRANITE FALLS  SUNNY     74  55  51 NW8       30.11S
CANBY          SUNNY     75  52  44 NW7       30.12F
MARSHALL       MOSUNNY   73  54  49 N9        30.10F
REDWOOD FALLS  SUNNY     76  51  41 NW7       30.09S
OLIVIA         SUNNY     73  54  49 NW10      30.08F
PIPESTONE      MOSUNNY   73  52  46 NW6       30.13F
WINDOM         SUNNY     73  54  49 NW8       30.11S
WORTHINGTON    SUNNY     70  55  60 NW5       30.14S
JACKSON        SUNNY     73  52  46 NW7       30.12S
TRACY          SUNNY     74  53  48 NW7       30.11F
SLAYTON        SUNNY     73  53  49 CALM      30.13F
$$
MNZ065>067-074>077-082>085-091>093-300100-
   South Central Minnesota

CITY           SKY/WX    TMP DP  RH WIND       PRES   REMARKS
MANKATO        SUNNY     75  52  43 NW10      30.07F
NEW ULM        SUNNY     75  54  46 NW9       30.08F
ST JAMES       SUNNY     77  52  41 W10       30.10S
FAIRMONT       SUNNY     75  48  38 NW8       30.09F
GLENCOE        SUNNY     75  52  44 W9        30.07S
FARIBAULT      SUNNY     79  46  31 W10       30.06F
OWATONNA       SUNNY     75  52  43 W12       30.07F
WASECA         SUNNY     72  48  43 W9        30.09S
ALBERT LEA     SUNNY     73  54  49 NW7       30.08S
$$
MNZ078>079-086>088-094>096-300100-
   Southeast Minnesota

CITY           SKY/WX    TMP DP  RH WIND       PRES   REMARKS
ROCHESTER      SUNNY     74  54  49 NW7       30.07F
6HR MIN TEMP:  73; 6HR MAX TEMP:  77;

RED WING       LGT RAIN  68  63  83 CALM      30.02F
STANTON        MOSUNNY   76  55  47 W9        30.03F
DODGE CENTER   SUNNY     73  54  49 NW13      30.07F
WINONA         PTSUNNY   77  54  44 NW10      30.03R
AUSTIN         SUNNY     73  54  49 NW10      30.07S
PRESTON        SUNNY     72  60  67 NW10      30.07S
$$
ABBREVIATIONS USED IN REMARKS
   TC - TEMPERATURES IN CELSIUS
  WCI - WIND CHILL INDEX
   HX - HEAT INDEX
  VSB - VISIBILITY
$$


USA.gov is the U.S. government's official web portal to all federal, state and local government web resources and services.